[Iaude] MPEC V15: 2004 VZ14 [a=1.53,e=0.53,i=4.6,H=25.04]
    mpec at marsden.cfa.harvard.edu 
    mpec at marsden.cfa.harvard.edu
       
    Fri Nov  3 22:42:18 EDT 2023
    
    
  
M.P.E.C. 2023-V15                              Issued 2023 November 4, 02:40 UT
     The Minor Planet Electronic Circulars contain information on unusual
         minor planets, routine data on comets and natural satellites,
         and occasional editorial announcements.  They are published
    on behalf of Division F of the International Astronomical Union by the
          Minor Planet Center, Smithsonian Astrophysical Observatory,
                          Cambridge, MA 02138, U.S.A.
			  
             Prepared using the Tamkin Foundation Computer Network
                              MPC at CFA.HARVARD.EDU
            URL https://www.minorplanetcenter.net/    ISSN 1523-6714
                                   2004 VZ14                                    
                           Revision to MPEC 2004-V30                            
Additional Observations:
     K04V14Z 1C2023 11 03.47626004 38 21.008+20 21 33.70         17.49GVEV015703
     K04V14Z 1C2023 11 03.48200004 38 02.447+20 22 42.46         17.72GVEV015703
     K04V14Z 1C2023 11 03.48774304 37 43.907+20 23 49.88               VEV015703
     K04V14Z 1C2023 11 03.49349004 37 25.370+20 24 59.26               VEV015703
     K04V14Z  C2023 11 03.50641704 37 04.238+20 29 41.60         16.97oVEV015T05
     K04V14Z  C2023 11 03.51003404 36 52.478+20 30 25.38         17.74oVEV015T05
     K04V14Z  C2023 11 03.51590904 36 33.569+20 31 35.33         17.68oVEV015T05
     K04V14Z mC2023 11 03.51655404 36 12.222+20 29 22.78         17.41GVEV015I52
     K04V14Z mC2023 11 03.51669004 36 11.786+20 29 24.47         17.07GVEV015I52
     K04V14Z mC2023 11 03.51682504 36 11.387+20 29 25.91         16.98GVEV015I52
     K04V14Z mC2023 11 03.51696104 36 10.958+20 29 27.38         17.28GVEV015I52
     K04V14Z mC2023 11 03.52280404 35 52.699+20 30 33.26         17.48GVEV015I52
     K04V14Z mC2023 11 03.52293904 35 52.282+20 30 34.52         17.56GVEV015I52
     K04V14Z mC2023 11 03.52308604 35 51.835+20 30 36.25         17.31GVEV015I52
     K04V14Z mC2023 11 03.52323004 35 51.385+20 30 37.73         17.32GVEV015I52
     K04V14Z  C2023 11 03.52669604 35 58.913+20 33 42.23         17.16oVEV015T05
     K04V14Z KC2023 11 03.55207704 35 07.98 +20 35 56.0          17.5 GVEV015900
     K04V14Z KC2023 11 03.55967804 34 44.80 +20 37 28.4          17.3 GVEV015900
     K04V14Z KC2023 11 03.56727904 34 21.67 +20 38 59.7          17.7 GVEV015900
     K04V14Z KB2023 11 03.80714804 23 41.912+21 16 32.24         17.4 GXEV015B72
     K04V14Z KC2023 11 03.80746 04 23 41.18 +21 17 11.0          17.4 VqEV015M38
     K04V14Z KB2023 11 03.81028904 23 34.151+21 17 01.91         17.5 GXEV015B72
     K04V14Z KB2023 11 03.81337504 23 26.594+21 17 31.35         17.1 GXEV015B72
     K04V14Z KC2023 11 03.81341 04 23 26.43 +21 18 07.9          17.7 VqEV015M38
     K04V14Z 1C2023 11 03.83659 04 22 26.06 +21 22 25.6          17.9 GVEV015C40
     K04V14Z 1C2023 11 03.84252 04 22 11.29 +21 23 19.5          18.1 GVEV015C40
     K04V14Z KC2023 11 03.84455 04 22 09.49 +21 23 06.5          18.1 VqEV015L04
     K04V14Z KC2023 11 03.84626 04 22 05.27 +21 23 22.0          18.1 VqEV015L04
     K04V14Z 1C2023 11 03.84837 04 21 56.72 +21 24 12.1          17.9 GVEV015C40
     K04V14Z KC2023 11 03.84921 04 21 58.04 +21 23 48.4          17.9 VqEV015L04
     K04V14Z 1C2023 11 03.86831 04 21 07.51 +21 27 07.9          17.9 GVEV015C40
     K04V14Z 1C2023 11 03.87314 04 20 55.65 +21 27 49.7          18.0 GVEV015C40
     K04V14Z 1C2023 11 03.87785 04 20 44.14 +21 28 30.3          18.0 GVEV015C40
     K04V14Z KC2023 11 03.89153104 20 18.816+21 29 05.60         17.3 GVEV015Z80
     K04V14Z KB2023 11 03.89214 04 20 15.37 +21 29 15.2          18.2 GVEV015L65
     K04V14Z KB2023 11 03.89582 04 20 06.67 +21 29 46.8          17.5 GVEV015L65
     K04V14Z KC2023 11 03.89715504 20 05.518+21 29 54.24         17.5 GVEV015Z80
     K04V14Z KB2023 11 03.89950 04 19 57.93 +21 30 18.3          18.1 GVEV015L65
     K04V14Z KC2023 11 03.92164604 19 08.431+21 33 25.88         17.3 GVEV015J69
     K04V14Z KC2023 11 03.92595904 18 58.382+21 34 02.50         17.3 GVEV015J69
     K04V14Z KC2023 11 03.93037504 18 48.106+21 34 39.11         17.4 GVEV015J69
     K04V14Z KC2023 11 03.93488804 18 37.654+21 35 16.44         17.0 GVEV015J69
     K04V14Z  C2023 11 03.93861 04 18 23.23 +21 36 23.1          17.8 R EV015M32
     K04V14Z  C2023 11 03.94321 04 18 12.47 +21 36 59.8          17.7 R EV015M32
     K04V14Z  C2023 11 03.94782 04 18 01.68 +21 37 36.5          17.8 R EV015M32
     K04V14Z  C2023 11 03.95190 04 17 54.07 +21 46 19.3          17.7 GVEV015M28
     K04V14Z  C2023 11 03.95242 04 17 50.88 +21 38 13.1          17.7 R EV015M32
     K04V14Z  C2023 11 03.95396 04 17 49.41 +21 46 34.7          18.2 GVEV015M28
     K04V14Z  C2023 11 03.95601 04 17 44.50 +21 46 51.4          18.3 GVEV015M28
     K04V14Z  C2023 11 03.95703 04 17 40.08 +21 38 49.8          17.7 R EV015M32
     K04V14Z KC2023 11 03.96493104 17 25.08 +21 40 05.6          17.1 GVEV015L01
     K04V14Z KC2023 11 03.96653704 17 21.35 +21 40 18.0          17.4 GVEV015L01
     K04V14Z KC2023 11 03.96814104 17 17.65 +21 40 30.5          17.3 GVEV015L01
     K04V14Z KC2023 11 03.96975704 17 13.91 +21 40 43.3          15.9 GVEV015L01
     K04V14Z KC2023 11 03.97138104 17 10.15 +21 40 56.1          17.3 GVEV015L01
     K04V14Z KC2023 11 03.97330204 17 05.74 +21 41 10.8          16.9 GVEV015L01
     K04V14Z KC2023 11 04.03995804 14 37.10 +21 49 20.0          17.8 GVEV015204
     K04V14Z KC2023 11 04.04089904 14 35.03 +21 49 26.8                VEV015204
     K04V14Z KC2023 11 04.04184004 14 32.96 +21 49 33.5                VEV015204
     K04V14Z KC2023 11 04.04278204 14 30.88 +21 49 40.0                VEV015204
     K04V14Z KC2023 11 04.04372504 14 28.80 +21 49 46.8                VEV015204
Observer details:
204 Schiaparelli Observatory.  Observers L. Buzzi, G. Galli.  0.84-m f/3.5
    reflector + CCD.
703 Catalina Sky Survey.  Observer J. K. Hogan.  Measurers E. C. Beshore, D.
    Fay, J. B. Fazekas, D. C. Fuls, A. R. Gibbs, A. D. Grauer, H. Groeller, J.
    K. Hogan, R. A. Kowalski, S. M. Larson, G. J. Leonard, D. Rankin, R. L.
    Seaman, F. C. Shelly, K. W. Wierzchos.  0.68-m Schmidt + 10K CCD.
900 Moriyama.  Observer Y. Ikari.  0.26-m f/7.0 reflector + CCD.
B72 Soerth.  Observer B. Koch.  0.36-m f/7.6 reflector + CMO.
C40 Kuban State University Astrophysical Observatory.  Observers A. Ivanov, A.
    Barcov, V. Ivanov, V. Lysenko, N. Yakovenko, N. Ivanova, N. Gorbunov, G.
    Kurbatov, P. Shchukin, V. Roshchupko.  Measurer A. Ivanov.  0.51-m f/8
    reflector + CCD.
I52 Steward Observatory, Mt. Lemmon Station.  Observer D. Rankin.  Measurers
    E. C. Beshore, D. Fay, J. B. Fazekas, D. C. Fuls, A. R. Gibbs, A. D.
    Grauer, H. Groeller, J. K. Hogan, R. A. Kowalski, S. M. Larson, G. J.
    Leonard, D. Rankin, R. L. Seaman, F. C. Shelly, K. W. Wierzchos.  1.0-m
    prime focus + CCD.
J69 North Observatory, Clanfield.  Observer D. Briggs.  0.3-m f/5.4 0.3-m
    f/5.4 Newtonian reflector + CCD + CCD.
L01 Visnjan Observatory, Tican.  Observers K. Korlevic, L. Poropat.  Measurer
    K. Korlevic.  1.0-m f/2.9 reflector + CCD.
L04 ROASTERR-1 Observatory, Cluj-Napoca.  Observer L. Hudin.  0.3-m f/5
    reflector + CCD.
L65 Bredenkamp Observatory, Bremen.  Observer H. Duin.  0.23-m f/6.3 reflector
    + CMO.
M28 Lesedi Telescope-SAAO Observatory, Sutherland.  Observers N. Erasmus, S.
    Potter, C. van Gend, S. Chandra, H. Worters.  Measurers T. Ngwane, N.
    Erasmus.  1.0-m f/8 Reflector + CCD.
M32 Sunny Transcarpathian, Mukachevo.  Observer O. Vasiltsun.  Measurers O.
    Vasiltsun, O. Briukhovetskyi.  0.35-m f/2.0 astrograf + CCD.
M38 Harsona Observatory, Nyiregyhaza.  Observer T. Elek.  0.20-m f/3 reflector
    + CCD.
T05 ATLAS-HKO, Haleakala.  Observers L. Denneau, R. Siverd, J. Tonry, H.
    Weiland.  Measurers L. Denneau, N. Erasmus, A. Fitzsimmons, A. Lawrence,
    J. Robinson, R. Siverd, J. Tonry, H. Weiland.  0.5-m Reflector + CCD.
Z80 Northolt Branch Observatory.  Observer G. Wells.  Measurers G. Wells, D.
    Bamberger.  0.25-m f/8.0 Ritchey-Chretien + CCD.
First and last observations above in comparison with prediction:
Residuals in seconds of arc (or zero decimals in degrees), reference and Delta-T
231103 703   36-    6-    231104 204   41-    4-    MPO 74429   -11.1 days
Orbital elements:
2004 VZ14                                                Earth MOID = 0.0032 AU
Epoch 2023 Sept. 13.0 TT = JDT 2460200.5                Veres                   
M 359.77510              (2000.0)            P               Q                  
n   0.51868850     Peri.  280.50582     +0.78533955     +0.61680602             
a   1.5341399      Node    41.43895     -0.53216951     +0.71624977             
e   0.5263948      Incl.    4.57943     -0.31628690     +0.32639946             
P   1.90           H   25.04          G   0.15           U   0                  
Residuals in seconds of arc
041104 703  1.2-  0.0     041111 691  0.0   0.2-    231103 L04  0.1-  0.2-
041104 703  0.8-  0.2-    041111 715  0.1+  0.3-    231103 C40  0.6-  0.2+
041104 703  1.2-  0.3-    041111 715  0.6-  0.2-    231103 C40  0.7-  0.1+
041104 703  1.4+  1.4-    041113 J95  0.0   0.3-    231103 C40  0.3-  0.1+
041104 J95  0.6-  0.6+    041113 J95  0.2+  0.9+    231103 Z80  0.3-  0.1+
041104 J95  0.5+  1.0-    231103 703  1.1-  0.5-    231103 L65  0.1+  0.1+
041104 J95  0.1+  0.7-    231103 703  0.6+  0.3-    231103 L65  0.6+  0.1-
041105 A50  0.7+  0.2+    231103 703  1.2+  0.8-    231103 Z80  0.6-  0.1-
041105 A50  0.2-  0.6-    231103 703  0.6+  1.1+    231103 L65  0.3+  0.2-
041105 A50  0.2+  0.4+    231103 T05  0.2-  0.1-    231103 J69  0.1+  0.1-
041105 A50  1.4-  0.1-    231103 T05  0.7-  0.2+    231103 J69  0.2+  0.3+
mailing list